Weather History for KLMT - February, 2014

Change the Weather History Date:

Friday, February 14, 2014

  Actual Average Record
Temperature  
Mean Temperature 44 °F 34 °F  
Max Temperature 49 °F 45 °F 62 °F (2015)
Min Temperature 39 °F 24 °F 1 °F (1989)
Degree Days  
Heating Degree Days 21 31  
Month to date heating degree days 416 449  
Since 1 July heating degree days 4434 4429  
Cooling Degree Days 0 0  
Month to date cooling degree days 0 0  
Year to date cooling degree days 0 0  
Moisture  
Dew Point 40 °F    
Average Humidity 93    
Maximum Humidity 100    
Minimum Humidity 76    
Precipitation  
Precipitation 0.50 in 0.07 in 0.67 in (1981)
Month to date precipitation 1.82 0.96  
Year to date precipitation 2.13 2.81  
Sea Level Pressure  
Sea Level Pressure 29.98 in    
Wind  
Wind Speed 7 mph (WNW)    
Max Wind Speed 23 mph    
Max Gust Speed 31 mph    
Visibility 7 miles    
Events Rain    
T = Trace of Precipitation, MM = Missing Value Source: NWS Daily Summary

Daily Weather History Graph

Daily Weather History Graph

Search for Another Location

Airport or City:

Trip Planner

Search our weather history database for the weather conditions in past years. The results will help you decide how hot, cold, wet, or windy it might be!

Date:

Astronomy

Feb. 14, 2014 Rise Set
Actual Time 7:04 AM PST 5:38 PM PST
Civil Twilight 6:35 AM PST 6:07 PM PST
Nautical Twilight 6:02 AM PST 6:40 PM PST
Astronomical Twilight 5:30 AM PST 7:12 PM PST
Moon 5:48 PM PST (2/14) 6:33 AM PST (2/14)
Length of Visible Light 11h 31m
Length of Day
10h 34m
Full, 100% of the Moon is Illuminated
Feb 14
Full
Feb 14
Full
Feb 22
Last Quarter
Mar 1
New
Mar 8
First Quarter

Hourly Weather History & Observations

Time (PST) Temp. Windchill Dew Point Humidity Pressure Visibility Wind Dir Wind Speed Gust Speed Precip Events Conditions
12:19 AM 41.0 °F 39.0 °F 41.0 °F 100% 29.98 in 10.0 mi NNW 3.5 mph - 0.00 in Rain Light Rain
12:53 AM 41.0 °F 39.0 °F 41.0 °F 100% 29.95 in 10.0 mi NNW 3.5 mph - 0.00 in   Overcast
1:53 AM 42.1 °F - 42.1 °F 100% 29.92 in 8.0 mi Calm Calm - 0.01 in Rain Light Rain
2:53 AM 41.0 °F 37.1 °F 41.0 °F 100% 29.91 in 10.0 mi NNW 5.8 mph - 0.00 in   Overcast
3:53 AM 41.0 °F 37.1 °F 41.0 °F 100% 29.89 in 5.0 mi East 5.8 mph - N/A   Overcast
4:53 AM 43.0 °F - 43.0 °F 100% 29.91 in 10.0 mi Calm Calm - N/A   Overcast
5:53 AM 41.0 °F - 41.0 °F 100% 29.92 in 10.0 mi Calm Calm - N/A   Mostly Cloudy
6:53 AM 45.0 °F 40.6 °F 44.1 °F 97% 29.91 in 10.0 mi WSW 8.1 mph - 0.00 in Rain Light Rain
7:53 AM 44.1 °F 41.5 °F 42.1 °F 93% 29.95 in 10.0 mi NW 4.6 mph - 0.01 in Rain Light Rain
8:53 AM 46.9 °F - 44.1 °F 90% 29.96 in 10.0 mi SW 6.9 mph - 0.01 in Rain Light Rain
9:53 AM 48.0 °F - 42.1 °F 80% 29.96 in 10.0 mi WSW 16.1 mph - 0.00 in   Overcast
10:53 AM 48.9 °F - 43.0 °F 80% 29.98 in 10.0 mi West 19.6 mph - 0.00 in Rain Light Rain
11:53 AM 46.9 °F - 43.0 °F 86% 30.01 in 10.0 mi West 19.6 mph 25.3 mph 0.01 in Rain Light Rain
12:42 PM 48.0 °F - 43.0 °F 83% 30.02 in 10.0 mi West 16.1 mph - 0.01 in Rain Light Rain
12:53 PM 46.9 °F - 43.0 °F 86% 30.01 in 10.0 mi West 17.3 mph - 0.01 in Rain Light Rain
1:36 PM 46.9 °F - 41.0 °F 80% 30.01 in 10.0 mi West 10.4 mph - 0.00 in Rain Light Rain
1:53 PM 46.0 °F 41.4 °F 39.9 °F 79% 29.99 in 10.0 mi NW 9.2 mph - 0.00 in Rain Light Rain
2:53 PM 45.0 °F 41.2 °F 39.9 °F 82% 29.97 in 10.0 mi NW 6.9 mph - 0.01 in Rain Light Rain
3:16 PM 44.1 °F 40.1 °F 39.9 °F 85% 29.98 in 10.0 mi NW 6.9 mph - 0.00 in Rain Light Rain
3:51 PM 42.8 °F 37.0 °F 39.2 °F 87% 29.98 in 2.5 mi NW 10.4 mph - 0.01 in Rain Light Rain
3:53 PM 43.0 °F 37.2 °F 39.0 °F 86% 29.98 in 2.5 mi NW 10.4 mph - 0.01 in Rain Light Rain
4:01 PM 43.0 °F 36.4 °F 39.9 °F 89% 29.99 in 3.0 mi NNW 12.7 mph - 0.01 in Rain Light Rain
4:13 PM 42.1 °F 35.7 °F 39.9 °F 92% 29.99 in 2.5 mi NNW 11.5 mph - 0.03 in Rain Rain
4:26 PM 41.0 °F 34.3 °F 39.0 °F 93% 30.00 in 3.0 mi NNW 11.5 mph - 0.05 in Rain Light Rain
4:44 PM 41.0 °F 35.8 °F 37.9 °F 89% 29.99 in 5.0 mi North 8.1 mph - 0.06 in Rain Light Rain
4:53 PM 41.0 °F 35.8 °F 37.9 °F 89% 29.99 in 7.0 mi North 8.1 mph - 0.07 in Rain Light Rain
5:03 PM 39.9 °F 35.8 °F 37.9 °F 93% 30.00 in 10.0 mi North 5.8 mph - 0.00 in Rain Light Rain
5:33 PM 39.9 °F 34.5 °F 37.0 °F 89% 30.00 in 5.0 mi NNW 8.1 mph - 0.02 in Rain Light Rain
5:48 PM 39.2 °F - 37.4 °F 93% 29.99 in 5.0 mi Calm Calm - 0.03 in Rain Light Rain
5:53 PM 39.9 °F - 37.9 °F 93% 29.99 in 5.0 mi Calm Calm - 0.03 in Rain Light Rain
6:46 PM 39.0 °F 35.7 °F 37.9 °F 96% 30.01 in 5.0 mi NW 4.6 mph - 0.03 in Rain Light Rain
6:53 PM 39.0 °F 34.8 °F 37.0 °F 93% 30.00 in 4.0 mi NW 5.8 mph - 0.04 in Rain Light Rain
7:05 PM 39.0 °F 35.7 °F 37.0 °F 93% 30.01 in 4.0 mi North 4.6 mph - 0.01 in Rain Light Rain
7:18 PM 39.0 °F 36.8 °F 37.0 °F 93% 30.00 in 5.0 mi ESE 3.5 mph - 0.03 in Rain Light Rain
7:53 PM 39.0 °F 36.8 °F 39.0 °F 100% 30.01 in 4.0 mi SW 3.5 mph - 0.04 in Rain Light Rain
8:05 PM 39.0 °F 36.8 °F 39.0 °F 100% 30.01 in 3.0 mi SSW 3.5 mph - 0.02 in Rain Rain
8:23 PM 39.0 °F 34.8 °F 39.0 °F 100% 30.01 in 5.0 mi SE 5.8 mph - 0.04 in Rain Light Rain
8:53 PM 39.0 °F 34.8 °F 39.0 °F 100% 30.00 in 7.0 mi SSE 5.8 mph - 0.06 in Rain Light Rain
9:53 PM 39.0 °F 34.8 °F 39.0 °F 100% 29.97 in 8.0 mi ESE 5.8 mph - 0.10 in Rain Light Rain
10:53 PM 39.0 °F 33.4 °F 39.0 °F 100% 29.97 in 6.0 mi SSE 8.1 mph - 0.05 in Rain Light Rain
11:09 PM 39.9 °F 34.5 °F 39.9 °F 100% 29.99 in 8.0 mi SSE 8.1 mph - 0.01 in Rain Light Rain
11:39 PM 39.9 °F 34.5 °F 39.9 °F 100% 29.97 in 6.0 mi SSE 8.1 mph - 0.03 in Rain Light Rain
11:48 PM 39.2 °F 33.6 °F 39.2 °F 100% 29.96 in 9.0 mi SSE 8.1 mph - 0.03 in Rain Light Rain
11:53 PM 39.9 °F 34.5 °F 39.9 °F 100% 29.95 in 10.0 mi South 8.1 mph - 0.04 in Rain Light Rain